Regional Weather Roundup
Issued by NWS

Home | Current Version | Previous Version | Text Only | Print | Product List | Glossary Off
Versions: 1 2 3 4 5 6 7 8 9 10 11 12 13 14 15 16 17 18 19 20 21 22 23 24 25 26 27 28 29 30 31 32 33 34 35 36 37 38 39 40 41 42 43 44 45 46 47 48 49 50

000
ASUS43 KLOT 252109
RWRIL

ILLINOIS REGIONAL WEATHER ROUNDUP
NATIONAL WEATHER SERVICE CHICAGO/ROMEOVILLE IL
400 PM CDT MON SEP 25 2017

NOTE: "FAIR" INDICATES FEW OR NO CLOUDS BELOW 12,000 FEET WITH NO
SIGNIFICANT WEATHER AND/OR OBSTRUCTIONS TO VISIBILITY.

* THESE STATIONS ARE NOT UNDER NWS QUALITY CONTROL. THEY ALSO MAY NOT
  REPORT WEATHER SUCH AS PRECIPITATION OR FOG.

ILZ001-002-007-009-015-016-024-252200-
NORTHWEST ILLINOIS

CITY           SKY/WX    TMP DP  RH WIND       PRES   REMARKS
MOLINE         SUNNY     91  62  37 S10       29.87F HX  91
STERLING*      SUNNY     89  60  37 S6        29.90F HX  89
SAVANNA*       MOSUNNY   89  62  40 S8        29.88F HX  89
$$

ILZ003-004-008-010-011-017-018-252200-
NORTH CENTRAL ILLINOIS

CITY           SKY/WX    TMP DP  RH WIND       PRES   REMARKS
ROCKFORD       MOSUNNY   89  57  33 SE9       29.91F HX  88
FREEPORT*      SUNNY     88  58  35 S9        29.92F HX  87
ROCHELLE*      SUNNY     91  58  32 SW6       29.91F HX  89
DE KALB*       SUNNY     90  58  34 SE8G17    29.93F HX  89
PERU*          PTSUNNY   87  58  37 S7        29.91F HX  86
$$

ILZ005-006-012>014-019>023-252200-
NORTHEAST ILLINOIS

CITY           SKY/WX    TMP DP  RH WIND       PRES   REMARKS
CHICAGO-OHARE  MOSUNNY   91  55  29 SE12      29.91F HX  89
CHICAGO-MIDWAY MOSUNNY   91  57  31 E16       29.92F HX  89
AURORA         MOSUNNY   89  57  33 E3        29.92F HX  88
LANSING*       SUNNY     89  62  39 SE6       29.94F HX  89
JOLIET*        SUNNY     92  60  34 E6        29.92F HX  91
WAUKEGAN       SUNNY     84  63  49 SE10      29.93F HX  85
DUPAGE AIRPORT SUNNY     91  54  28 S9        29.91F HX  89
KANKAKEE*      SUNNY     89  57  33 SE6       29.94F HX  88
WHEELING       SUNNY     89  59  36 SE12      29.93F HX  88
MORRIS*        SUNNY     91  58  33 SE9       29.91F HX  90
ROMEOVILLE*    MOSUNNY   91  58  32 SE9       29.92F HX  89
NORTHERLY ISL    N/A     80  65  59 E10         N/A  HX  82
$$

LMZ740>746-252200-
SOUTHERN LAKE MICHIGAN

STATION/POSITION SKY/WX   TEMP    WIND        PRES    VSBY  WAVE
                          AIR SEA DIR/SP/G                  HT/PER
                          (F)     (DEG/KT/KT) (MB)    (MI)  (FT/S)
SOUTHERN BUOY              73 71  140/  6/  8 1014.8          1
WILMETTE HARBOR            76 72  120/ 10/ 12   N/A           1/ 2
HARRISON CRIB              80     110/ 17/ 18   N/A
BURNHAM HARBOR             79                   N/A
CALUMET HARBOR             82      60/ 10/ 13 1013.2F
BURNS HARBOR               89     160/  5/ 11 1014.2F
MICHIGAN CITY              86     360/  6/  6   N/A
MICHIGAN CITY 6N           80 75   70/  4/  6   N/A           0
ST. JOSEPH                 81 75   40/  2/  2 1014.0          0
$$

ILZ025>027-034>036-040-047-049-050-058-095>099-252200-
WEST-CENTRAL ILLINOIS

CITY           SKY/WX    TMP DP  RH WIND       PRES   REMARKS
QUINCY         SUNNY     86  63  45 S8        29.90S HX  87
GALESBURG*     MOSUNNY   90  61  38 S8        29.90F HX  90
MACOMB*        PTSUNNY   89  60  38 SE7       29.92F HX  88
JACKSONVILLE*  MOSUNNY   90  59  35 S9        29.90S HX  89
PITTSFIELD*    MOSUNNY   90  64  40 SE8       29.91F HX  91
$$

ILZ028>032-037-038-041>044-048-051>054-059>061-252200-
CENTRAL ILLINOIS

CITY           SKY/WX    TMP DP  RH WIND       PRES   REMARKS
PONTIAC        SUNNY     91  58  32 SE8       29.92F HX  90
BLOOMINGTON    MOSUNNY   89  61  38 SE9       29.94F HX  89
DECATUR        SUNNY     91  57  31 S8        29.92F HX  89
PEORIA         SUNNY     90  58  33 SE6       29.90F HX  89
LACON*         SUNNY     91  58  32 SW7       29.89F HX  90
LINCOLN*       MOSUNNY   92  60  33 S7        29.91F HX  92
SPRINGFIELD    SUNNY     93  61  34 SE7       29.90F HX  93
TAYLORVILLE    MOSUNNY   88  61  40 S5        29.92F HX  88
$$

ILZ033-039-045-046-055>057-062-063-252200-
EAST-CENTRAL ILLINOIS

CITY           SKY/WX    TMP DP  RH WIND       PRES   REMARKS
CHAMPAIGN      MOSUNNY   89  57  33 S9        29.94F HX  88
RANTOUL*       MOSUNNY   92  58  31 S3        29.93F HX  90
MATTOON        MOSUNNY   90  61  37 MISG      29.93F HX  90
PARIS*         SUNNY     91  59  34 W5        29.94F HX  90
$$

ILZ079-100>102-252200-
SOUTHWEST ILLINOIS

CITY           SKY/WX    TMP DP  RH WIND       PRES   REMARKS
ALTON          MOSUNNY   90  66  45 S7        29.91F HX  92
BELLEVILLE     MOSUNNY   90  62  39 SE10      29.90F HX  90
CAHOKIA*       SUNNY     94  60  32 SE12      29.89F HX  94
SPARTA*        SUNNY     89  62  40 S5        29.94F HX  90
$$

ILZ064>066-069>071-074>076-080>082-084>086-088>090-092>094-252200-
SOUTH-CENTRAL ILLINOIS

CITY           SKY/WX    TMP DP  RH WIND       PRES   REMARKS
CARBONDALE     MOSUNNY   88  64  44 S8        29.93F HX  89
CAIRO*         SUNNY     88  67  49 E7        29.93F HX  91
EFFINGHAM*     SUNNY     91  62  36 SE7       29.94F HX  91
MARION         MOSUNNY   91  63  38 SE5       29.95S HX  92
MT. VERNON       N/A     91  64  40 SE3       29.93F HX  92
CENTRALIA*     SUNNY     92  63  37 S9        29.92F HX  93
SALEM*         SUNNY     92  60  34 SW8       29.93F HX  92
METROPOLIS*    SUNNY     90  64  42 SE6       29.94F HX  91
$$

ILZ067-068-072-073-078-083-087-091-252200-
SOUTHEAST ILLINOIS

CITY           SKY/WX    TMP DP  RH WIND       PRES   REMARKS
LAWRENCEVILLE  PTSUNNY   90  64  42 S8        29.94F HX  91
FLORA*         SUNNY     92  62  36 S12       29.93F HX  93
FAIRFIELD*     SUNNY     92  60  34 S5        29.92F HX  91
HARRISBURG*    PTSUNNY   92  64  40 CALM      29.94F HX  93
ROBINSON*      SUNNY     91  63  39 SW3       29.94F HX  91
CARMI*         MOSUNNY   90  64  41 SW5       29.93F HX  92
$$

ABBREVIATIONS USED IN REMARKS
   TC - TEMPERATURE IN CELSIUS
  WCI - WIND CHILL INDEX
   HX - HEAT INDEX
  VSB - VISIBILITY
$$




USA.gov is the U.S. government's official web portal to all federal, state and local government web resources and services.